Tracking 25953 objects as of 16-Aug-2022
HD Live streaming from Space Station
objects crossing your sky now

STARLINK-3984

Track STARLINK-3984 now!
10-day predictions
STARLINK-3984 is classified as:


NORAD ID: 52621
Int'l Code: 2022-052Z
Perigee: 545.8 km
Apogee: 548.1 km
Inclination: 53.2 °
Period: 95.4 minutes
Semi major axis: 6917 km
RCS: Unknown
Launch date: May 14, 2022
Source: United States (US)
Launch site: AIR FORCE EASTERN TEST RANGE (AFETR)
aabbcc
Your satellite tracking list
Your tracking list is empty




NASA's NSSDC Master Catalog

Two Line Element Set (TLE):
1 52621U 22052Z   22227.83334491  .00020874  00000-0  13266-2 0  9998
2 52621  53.2182 353.3867 0001609  55.7827 205.0040 15.08815276 14823
Source of the keplerian elements: AFSPC